Time,TemperatureF,DewpointF,PressureIn,WindDirection,WindDirectionDegrees,WindSpeedMPH,WindSpeedGustMPH,Humidity,HourlyPrecipIn,Conditions,Clouds,dailyrainin,SoftwareType,DateUTC
2013-03-13 00:04:00,44.6,37.8,29.76,WSW,247,7.3,-999.0,77,-99.99,,,0.00,Acu-Link.com,2013-03-13 04:04:00,
2013-03-13 00:20:00,44.2,37.5,29.76,West,270,5.8,-999.0,77,-99.99,,,0.00,Acu-Link.com,2013-03-13 04:20:00,
2013-03-13 00:35:00,44.2,37.8,29.76,NNW,337,4.7,-999.0,78,-99.99,,,0.00,Acu-Link.com,2013-03-13 04:35:00,
2013-03-13 00:50:00,44.1,37.7,29.76,West,270,4.2,-999.0,78,-99.99,,,0.00,Acu-Link.com,2013-03-13 04:50:00,
2013-03-13 01:05:00,43.5,37.1,29.77,WNW,292,7.8,-999.0,78,-99.99,,,0.00,Acu-Link.com,2013-03-13 05:05:00,
2013-03-13 01:36:00,43.3,36.9,29.77,West,270,2.7,-999.0,78,-99.99,,,0.00,Acu-Link.com,2013-03-13 05:36:00,
2013-03-13 01:51:00,43.0,36.6,29.77,NW,315,4.7,-999.0,78,-99.99,,,0.00,Acu-Link.com,2013-03-13 05:51:00,
2013-03-13 02:07:00,42.6,35.9,29.77,West,270,4.2,-999.0,77,-99.99,,,0.00,Acu-Link.com,2013-03-13 06:07:00,
2013-03-13 02:22:00,42.6,36.2,29.77,NNW,337,3.7,-999.0,78,-99.99,,,0.00,Acu-Link.com,2013-03-13 06:22:00,
2013-03-13 02:37:00,42.6,35.9,29.77,WNW,292,4.7,-999.0,77,-99.99,,,0.00,Acu-Link.com,2013-03-13 06:37:00,
2013-03-13 02:52:00,42.3,35.6,29.78,West,270,4.2,-999.0,77,-99.99,,,0.00,Acu-Link.com,2013-03-13 06:52:00,
2013-03-13 03:07:00,42.3,35.3,29.77,WNW,292,3.7,-999.0,76,-99.99,,,0.00,Acu-Link.com,2013-03-13 07:07:00,
2013-03-13 03:23:00,42.3,35.9,29.77,NNW,337,4.7,-999.0,78,-99.99,,,0.00,Acu-Link.com,2013-03-13 07:23:00,
2013-03-13 03:38:00,41.7,35.4,29.78,WNW,292,4.2,-999.0,78,-99.99,,,0.00,Acu-Link.com,2013-03-13 07:38:00,
2013-03-13 03:53:00,41.5,35.2,29.78,NW,315,4.2,-999.0,78,-99.99,,,0.00,Acu-Link.com,2013-03-13 07:53:00,
2013-03-13 04:24:00,41.5,34.8,29.79,WNW,292,1.7,-999.0,77,-99.99,,,0.00,Acu-Link.com,2013-03-13 08:24:00,
2013-03-13 04:39:00,41.2,34.9,29.79,NW,315,4.2,-999.0,78,-99.99,,,0.00,Acu-Link.com,2013-03-13 08:39:00,
2013-03-13 04:54:00,41.2,35.2,29.80,West,270,4.7,-999.0,79,-99.99,,,0.00,Acu-Link.com,2013-03-13 08:54:00,
2013-03-13 05:09:00,41.4,34.7,29.80,WNW,292,4.7,-999.0,77,-99.99,,,0.00,Acu-Link.com,2013-03-13 09:09:00,
2013-03-13 05:24:00,41.4,33.7,29.80,NW,315,3.7,-999.0,74,-99.99,,,0.00,Acu-Link.com,2013-03-13 09:24:00,
2013-03-13 05:40:00,41.4,33.4,29.81,West,270,5.8,-999.0,73,-99.99,,,0.00,Acu-Link.com,2013-03-13 09:40:00,
2013-03-13 05:55:00,41.4,32.7,29.81,NW,315,3.2,-999.0,71,-99.99,,,0.00,Acu-Link.com,2013-03-13 09:55:00,
2013-03-13 06:10:00,41.4,33.1,29.81,WNW,292,3.2,-999.0,72,-99.99,,,0.00,Acu-Link.com,2013-03-13 10:10:00,
2013-03-13 06:25:00,41.2,33.6,29.81,West,270,4.2,-999.0,74,-99.99,,,0.00,Acu-Link.com,2013-03-13 10:25:00,
2013-03-13 06:40:00,41.0,32.7,29.81,West,270,4.7,-999.0,72,-99.99,,,0.00,Acu-Link.com,2013-03-13 10:40:00,
2013-03-13 06:55:00,40.6,32.3,29.82,SW,225,2.7,-999.0,72,-99.99,,,0.00,Acu-Link.com,2013-03-13 10:55:00,
2013-03-13 07:10:00,40.8,32.5,29.82,West,270,4.7,-999.0,72,-99.99,,,0.00,Acu-Link.com,2013-03-13 11:10:00,
2013-03-13 07:25:00,41.0,32.7,29.82,West,270,4.2,-999.0,72,-99.99,,,0.00,Acu-Link.com,2013-03-13 11:25:00,
2013-03-13 07:41:00,41.2,32.9,29.82,WSW,247,4.2,-999.0,72,-99.99,,,0.00,Acu-Link.com,2013-03-13 11:41:00,
2013-03-13 08:11:00,41.5,33.2,29.82,SSW,202,2.7,-999.0,72,-99.99,,,0.00,Acu-Link.com,2013-03-13 12:11:00,
2013-03-13 08:27:00,41.5,32.5,29.82,West,270,5.8,-999.0,70,-99.99,,,0.00,Acu-Link.com,2013-03-13 12:27:00,
2013-03-13 08:42:00,42.1,33.0,29.83,SSW,202,2.7,-999.0,70,-99.99,,,0.00,Acu-Link.com,2013-03-13 12:42:00,
2013-03-13 08:57:00,42.1,32.3,29.82,WNW,292,3.2,-999.0,68,-99.99,,,0.00,Acu-Link.com,2013-03-13 12:57:00,
2013-03-13 09:12:00,42.6,32.4,29.82,West,270,6.3,-999.0,67,-99.99,,,0.00,Acu-Link.com,2013-03-13 13:12:00,
2013-03-13 09:27:00,43.2,32.6,29.82,WNW,292,6.3,-999.0,66,-99.99,,,0.00,Acu-Link.com,2013-03-13 13:27:00,
2013-03-13 09:42:00,44.6,33.6,29.82,SW,225,3.7,-999.0,65,-99.99,,,0.00,Acu-Link.com,2013-03-13 13:42:00,
2013-03-13 09:57:00,45.0,33.2,29.82,WNW,292,8.9,-999.0,63,-99.99,,,0.00,Acu-Link.com,2013-03-13 13:57:00,
2013-03-13 10:12:00,45.7,31.8,29.81,WNW,292,6.8,-999.0,58,-99.99,,,0.00,Acu-Link.com,2013-03-13 14:12:00,
2013-03-13 10:28:00,45.5,32.0,29.81,WNW,292,6.3,-999.0,59,-99.99,,,0.00,Acu-Link.com,2013-03-13 14:28:00,
2013-03-13 10:43:00,46.4,31.6,29.81,NW,315,5.3,-999.0,56,-99.99,,,0.00,Acu-Link.com,2013-03-13 14:43:00,
2013-03-13 10:58:00,47.5,31.2,29.81,NW,315,4.2,-999.0,53,-99.99,,,0.00,Acu-Link.com,2013-03-13 14:58:00,
2013-03-13 11:13:00,46.8,30.1,29.81,SSW,202,1.7,-999.0,52,-99.99,,,0.00,Acu-Link.com,2013-03-13 15:13:00,
2013-03-13 11:29:00,47.1,30.9,29.80,NNW,337,4.2,-999.0,53,-99.99,,,0.00,Acu-Link.com,2013-03-13 15:29:00,
2013-03-13 11:44:00,48.2,31.4,29.79,South,180,3.2,-999.0,52,-99.99,,,0.00,Acu-Link.com,2013-03-13 15:44:00,
2013-03-13 11:59:00,49.3,30.5,29.80,West,270,4.7,-999.0,48,-99.99,,,0.00,Acu-Link.com,2013-03-13 15:59:00,
2013-03-13 12:14:00,48.2,29.4,29.79,West,270,4.2,-999.0,48,-99.99,,,0.00,Acu-Link.com,2013-03-13 16:14:00,
2013-03-13 12:30:00,48.0,29.3,29.79,West,270,6.3,-999.0,48,-99.99,,,0.00,Acu-Link.com,2013-03-13 16:30:00,
2013-03-13 12:45:00,49.1,30.3,29.78,NNE,22,5.3,-999.0,48,-99.99,,,0.00,Acu-Link.com,2013-03-13 16:45:00,
2013-03-13 13:00:00,51.1,28.8,29.77,SW,225,6.3,-999.0,42,-99.99,,,0.00,Acu-Link.com,2013-03-13 17:00:00,
2013-03-13 13:15:00,50.7,27.3,29.76,SSW,202,5.8,-999.0,40,-99.99,,,0.00,Acu-Link.com,2013-03-13 17:15:00,
2013-03-13 13:30:00,52.3,28.1,29.75,WSW,247,5.3,-999.0,39,-99.99,,,0.00,Acu-Link.com,2013-03-13 17:30:00,
2013-03-13 13:45:00,52.7,28.4,29.75,West,270,4.7,-999.0,39,-99.99,,,0.00,Acu-Link.com,2013-03-13 17:45:00,
2013-03-13 14:00:00,53.1,27.5,29.74,West,270,9.4,-999.0,37,-99.99,,,0.00,Acu-Link.com,2013-03-13 18:00:00,
2013-03-13 14:16:00,51.1,26.4,29.73,NW,315,6.3,-999.0,38,-99.99,,,0.00,Acu-Link.com,2013-03-13 18:16:00,
2013-03-13 14:31:00,53.1,27.5,29.73,West,270,8.9,-999.0,37,-99.99,,,0.00,Acu-Link.com,2013-03-13 18:31:00,
2013-03-13 14:46:00,51.3,26.6,29.72,West,270,6.8,-999.0,38,-99.99,,,0.00,Acu-Link.com,2013-03-13 18:46:00,
2013-03-13 15:01:00,53.1,26.9,29.71,SSW,202,4.2,-999.0,36,-99.99,,,0.00,Acu-Link.com,2013-03-13 19:01:00,
2013-03-13 15:31:00,51.6,26.2,29.71,NW,315,2.7,-999.0,37,-99.99,,,0.00,Acu-Link.com,2013-03-13 19:31:00,
2013-03-13 15:47:00,51.1,25.7,29.71,WSW,247,4.2,-999.0,37,-99.99,,,0.00,Acu-Link.com,2013-03-13 19:47:00,
2013-03-13 16:02:00,50.9,24.2,29.71,SSW,202,7.8,-999.0,35,-99.99,,,0.00,Acu-Link.com,2013-03-13 20:02:00,
2013-03-13 16:18:00,51.6,26.2,29.72,West,270,7.3,-999.0,37,-99.99,,,0.00,Acu-Link.com,2013-03-13 20:18:00,
2013-03-13 16:33:00,50.5,24.6,29.72,NW,315,6.8,-999.0,36,-99.99,,,0.00,Acu-Link.com,2013-03-13 20:33:00,
2013-03-13 16:48:00,51.4,24.7,29.72,West,270,5.3,-999.0,35,-99.99,,,0.00,Acu-Link.com,2013-03-13 20:48:00,
2013-03-13 17:03:00,50.9,25.6,29.73,NW,315,8.3,-999.0,37,-99.99,,,0.00,Acu-Link.com,2013-03-13 21:03:00,
2013-03-13 17:19:00,50.5,25.9,29.73,WSW,247,8.9,-999.0,38,-99.99,,,0.00,Acu-Link.com,2013-03-13 21:19:00,
2013-03-13 17:34:00,50.7,26.7,29.73,West,270,4.7,-999.0,39,-99.99,,,0.00,Acu-Link.com,2013-03-13 21:34:00,
2013-03-13 17:50:00,50.4,25.8,29.73,WNW,292,4.2,-999.0,38,-99.99,,,0.00,Acu-Link.com,2013-03-13 21:50:00,
2013-03-13 18:05:00,49.1,25.2,29.73,SSW,202,3.7,-999.0,39,-99.99,,,0.00,Acu-Link.com,2013-03-13 22:05:00,
2013-03-13 18:20:00,48.2,26.2,29.74,WSW,247,6.8,-999.0,42,-99.99,,,0.00,Acu-Link.com,2013-03-13 22:20:00,
2013-03-13 18:35:00,47.3,27.0,29.75,West,270,8.9,-999.0,45,-99.99,,,0.00,Acu-Link.com,2013-03-13 22:35:00,
2013-03-13 18:50:00,46.8,28.2,29.76,West,270,4.2,-999.0,48,-99.99,,,0.00,Acu-Link.com,2013-03-13 22:50:00,
2013-03-13 19:05:00,45.3,28.3,29.77,WSW,247,5.8,-999.0,51,-99.99,,,0.00,Acu-Link.com,2013-03-13 23:05:00,
2013-03-13 19:20:00,44.8,28.3,29.78,West,270,1.7,-999.0,52,-99.99,,,0.00,Acu-Link.com,2013-03-13 23:20:00,
2013-03-13 19:51:00,44.4,27.9,29.78,SSW,202,7.8,-999.0,52,-99.99,,,0.00,Acu-Link.com,2013-03-13 23:51:00,
2013-03-13 20:06:00,44.4,27.9,29.78,West,270,4.7,-999.0,52,-99.99,,,0.00,Acu-Link.com,2013-03-14 00:06:00,
2013-03-13 20:22:00,44.4,28.4,29.78,West,270,5.8,-999.0,53,-99.99,,,0.00,Acu-Link.com,2013-03-14 00:22:00,
2013-03-13 20:37:00,44.2,28.2,29.79,SW,225,5.3,-999.0,53,-99.99,,,0.00,Acu-Link.com,2013-03-14 00:37:00,
2013-03-13 20:52:00,44.1,29.0,29.79,SW,225,3.2,-999.0,55,-99.99,,,0.00,Acu-Link.com,2013-03-14 00:52:00,
2013-03-13 21:08:00,44.1,29.9,29.79,SSW,202,4.7,-999.0,57,-99.99,,,0.00,Acu-Link.com,2013-03-14 01:08:00,
2013-03-13 21:23:00,43.5,29.3,29.79,South,180,2.7,-999.0,57,-99.99,,,0.00,Acu-Link.com,2013-03-14 01:23:00,
2013-03-13 21:38:00,43.2,29.0,29.79,SW,225,2.7,-999.0,57,-99.99,,,0.00,Acu-Link.com,2013-03-14 01:38:00,
2013-03-13 21:53:00,42.6,29.3,29.80,NW,315,5.8,-999.0,59,-99.99,,,0.00,Acu-Link.com,2013-03-14 01:53:00,
2013-03-13 22:09:00,42.8,29.1,29.80,WNW,292,3.2,-999.0,58,-99.99,,,0.00,Acu-Link.com,2013-03-14 02:09:00,
2013-03-13 22:24:00,42.6,29.3,29.81,West,270,2.7,-999.0,59,-99.99,,,0.00,Acu-Link.com,2013-03-14 02:24:00,
2013-03-13 22:39:00,42.1,28.4,29.81,WNW,292,5.8,-999.0,58,-99.99,,,0.00,Acu-Link.com,2013-03-14 02:39:00,
2013-03-13 22:54:00,41.9,28.2,29.81,SW,225,5.8,-999.0,58,-99.99,,,0.00,Acu-Link.com,2013-03-14 02:54:00,
2013-03-13 23:10:00,41.7,27.2,29.81,West,270,4.2,-999.0,56,-99.99,,,0.00,Acu-Link.com,2013-03-14 03:10:00,
2013-03-13 23:25:00,41.5,26.6,29.81,North,0,4.7,-999.0,55,-99.99,,,0.00,Acu-Link.com,2013-03-14 03:25:00,
2013-03-13 23:40:00,40.6,26.1,29.81,WNW,292,7.8,-999.0,56,-99.99,,,0.00,Acu-Link.com,2013-03-14 03:40:00,
2013-03-13 23:55:00,39.9,25.9,29.82,NNW,337,17.1,-999.0,57,-99.99,,,0.00,Acu-Link.com,2013-03-14 03:55:00,